Flag for France Weather past 2 weeks in Strasbourg, France

Now
45 °F

Clear.


Feels Like: 45 °F
Forecast: 41 / 66 °F
Wind: 2 mph from North

Location: Strasbourg Airport

Current Time: Apr 22, 2015 at 5:50:34 AM

Latest Report: Apr 22, 2015 at 5:00 AM


Visibility: N/A

Pressure: 30.30 "Hg

Humidity: 76%

Dew point: 37 °F

Location of StrasbourgLocation

Historic Weather in Strasbourg — Graph

°F

Strasbourg temperature yesterday

Maximum temperature yesterday: 75 °F (at 5:00 PM)
Minimum temperature yesterday: 43 °F (at 3:00 AM)
Average temperature yesterday: 59 °F

Past Weeks' High & Low Weather Summary

 TemperatureHumidityPressure
High81 °F (Apr 15, 3:00 PM)94% (Apr 17, 2:30 PM)30.63 "Hg (Apr 17, 2:30 PM)
Low30 °F (Apr 7, 5:30 AM)15% (Apr 15, 4:30 PM)29.89 "Hg (Apr 16, 5:30 PM)
Average55 °F56%30.25 "Hg
* Reported Apr 7 4:00 AM — Apr 22 4:30 AM, Strasbourg, Weather by CustomWeather, © 2015

Note: Actual official high and low records may vary slightly from our data, if they occured in-between our weather recording intervals... More about our weather records

Advertising

Strasbourg weather history for previous 24 hours

 ConditionsComfort  
Time TempWeatherWind HumidityBarometerVisibility
4:30 AM
Wed, Apr 22
46 °FClear.3 mph71%30.30 "HgN/A
4:00 AM46 °FClear.3 mph76%30.33 "HgN/A
3:30 AM46 °FClear.2 mph76%30.33 "HgN/A
3:00 AM46 °FClear.2 mph76%30.33 "HgN/A
2:30 AM48 °FClear.2 mph71%30.33 "HgN/A
2:00 AM48 °FClear.3 mph71%30.33 "HgN/A
1:30 AM50 °FClear.5 mph67%30.36 "HgN/A
1:00 AM50 °FClear.1 mph67%30.36 "HgN/A
12:30 AM50 °FClear.2 mph67%30.36 "HgN/A
12:00 AM54 °FClear.3 mph58%30.33 "HgN/A
11:30 PM
Tue, Apr 21
55 °FClear.2 mph55%30.33 "HgN/A
11:00 PM55 °FClear.2 mph55%30.33 "HgN/A
10:30 PM57 °FClear.3 mph51%30.33 "HgN/A
10:00 PM57 °FClear.6 mph55%30.33 "HgN/A
9:30 PM63 °FClear.3 mph42%30.33 "HgN/A
9:00 PM63 °FPassing clouds.2 mph42%30.33 "HgN/A
8:30 PM66 °FClear.5 mph35%30.30 "HgN/A
8:00 PM70 °FClear.6 mph31%30.30 "HgN/A
7:30 PM72 °FClear.8 mph27%30.30 "HgN/A
7:00 PM72 °FClear.7 mph25%30.30 "HgN/A
6:30 PM73 °FPassing clouds.7 mph23%30.30 "HgN/A
6:00 PM73 °FClear.7 mph22%30.30 "HgN/A
5:30 PM73 °FClear.8 mph23%30.30 "HgN/A
5:00 PM75 °FClear.5 mph22%30.33 "HgN/A
4:30 PM73 °FClear.6 mph23%30.33 "HgN/A
4:00 PM73 °FClear.5 mph25%30.33 "HgN/A
3:30 PM72 °FClear.7 mph27%30.33 "HgN/A
3:00 PM72 °FClear.7 mph29%30.36 "HgN/A
2:30 PM70 °FClear.9 mph31%30.36 "HgN/A
2:00 PM70 °FClear.7 mph29%30.36 "HgN/A
1:30 PM68 °FClear.8 mph33%30.36 "HgN/A
1:00 PM70 °FClear.9 mph31%30.39 "HgN/A
12:30 PM68 °FClear.9 mph35%30.39 "HgN/A
12:00 PM66 °FClear.9 mph35%30.39 "HgN/A
11:30 AM66 °FClear.9 mph37%30.39 "HgN/A
11:00 AM63 °FClear.10 mph42%30.39 "HgN/A
10:30 AM61 °FClear.10 mph48%30.39 "HgN/A
10:00 AM59 °FClear.9 mph51%30.39 "HgN/A
9:30 AM57 °FClear.7 mph55%30.39 "HgN/A
9:00 AM55 °FClear.6 mph59%30.39 "HgN/A
8:30 AM52 °FClear.5 mph62%30.39 "HgN/A
8:00 AM50 °FClear.3 mph71%30.36 "HgN/A
7:30 AM46 °FClear.3 mph76%30.36 "HgN/A
7:00 AM43 °FClear.3 mph81%30.36 "HgN/A
6:30 AM43 °FClear.3 mph81%30.33 "HgN/A
6:00 AM43 °FClear.3 mph81%30.33 "HgN/A
5:30 AM43 °FClear.3 mph81%30.33 "HgN/A
5:00 AM43 °FClear.6 mph81%30.33 "HgN/A
Weather by CustomWeather, © 2015

See weather overviewHow to use our weather pages